Regional Weather Roundup
Issued by NWS Newport/Morehead, NC

Current Version | Previous Version | Graphics & Text | Print | Product List | Glossary On
Versions: 1 2 3 4 5 6 7 8 9 10 11 12 13 14 15 16 17 18 19 20 21 22 23 24 25 26 27 28 29 30 31 32 33 34 35 36 37 38 39 40 41 42 43 44 45 46 47 48 49 50
000 ASUS42 KMHX 251522 RWRMHX WEATHER ROUNDUP FOR EASTERN NORTH CAROLINA NATIONAL WEATHER SERVICE NEWPORT/MOREHEAD CITY NC 1000 AM EST THU DEC 25 2014 NOTE: "FAIR" INDICATES FEW OR NO CLOUDS BELOW 12,000 FEET WITH NO SIGNIFICANT WEATHER AND/OR OBSTRUCTIONS TO VISIBILITY NCZ015>017-031-032-045>047-102-103-251600- NORTH COAST CITY SKY/WX TMP DP RH WIND PRES REMARKS EDENTON CLOUDY 55 42 60 NW13G24 29.98R ELIZABETH CITY CLOUDY 58 44 60 W18G26 29.95R KITTY HAWK CLOUDY 57 47 70 W15G26 29.92R MANTEO CLOUDY 55 43 62 W14G28 29.94R $$ NCZ045>047-081-094-103-104-251600- CENTRAL COAST CITY SKY/WX TMP DP RH WIND PRES REMARKS FRISCO CLOUDY 58 50 75 W14G25 29.94R SWANQUARTER N/A 57 N/A N/A NW9G21 29.94R $$ NCZ095-097-098-100-101-251600- SOUTHERN COAST CITY SKY/WX TMP DP RH WIND PRES REMARKS BEAUFORT CLOUDY 57 49 74 W18 30.01R CEDAR ISLAND N/A 55 N/A N/A W12G22 30.03R JACKSONVILLE CLOUDY 55 47 74 W12 30.01R PINEY ISLAND CLOUDY 58 49 72 W16G24 30.00R WILMINGTON CLOUDY 54 45 71 W15 30.05R $$ NCZ011>013-027>030-043-044-078>080-089-090>093-098-251600- COASTAL PLAIN CITY SKY/WX TMP DP RH WIND PRES REMARKS AHOSKIE CLOUDY 52 40 62 NW3 29.99R CLINTON CLOUDY 55 48 78 W8G16 30.05R ELIZABETHTOWN CLOUDY 54 44 70 W10 30.07R GOLDSBORO CLOUDY 56 47 72 W9 30.01R GREENVILLE CLOUDY 55 45 67 NW9 30.02R HAVELOCK CLOUDY 57 49 74 W14G22 30.02R KENANSVILLE CLOUDY 55 47 74 W9 30.05R KINSTON CLOUDY 57 46 67 NW8G17 30.02R NEW BERN CLOUDY 58 49 72 W10G20 30.01R RICHLANDS CLOUDY 55 46 71 W6G18 30.04R ROCKY MOUNT CLOUDY 54 39 57 W10 30.01R WASHINGTON CLOUDY 56 46 70 NW10 30.01R WHITEVILLE CLOUDY 53 43 68 W8 30.07R $$ AMZ130-135-150-152-154-156-158-170-250-252-270-ANZ085-086-088-633-658-670-251600- MARINE OBSERVATIONS STATION/POSITION TIME TEMP WIND PRES WAVE SWELL AIR SEA DIR/SP/G HT/PER HT/PER (UTC) (F) (DEG/KT/KT) (MB) (FT/S) (FT/S) CHESAPEAKE LIGHT 1500 53 280/ 25/ 26 1012.9 64 E VA BEACH 1500 57 53 260/ 19/ 23 1010.2 7/ 7 2/13 DUCK 1500 56 50 280/ 23/ 30 1012.7 2 E DUCK 1500 50 N/A 3/ 7 10 NE DUCK 1500 50 N/A 4/ 7 OREGON INLET 1500 58 54 260/ 10/ 16 1013.1 13E OREGON INLT 1500 51 N/A 5/ 8 2/11 HATTERAS CG 1500 59 57 270/ 18/ 23 1014.3 DIAMOND BUOY 1500 66 1013.1 8/ 8 17 S OCRACOKE NOT AVBL CAPE LOOKOUT 1500 58 270/ 20/ 24 1015.9 BEAUFORT LAB 1500 57 55 290/ 13/ 21 1015.6 30 SE NEW RIVER 1500 58 60 280/ 21/ 29 1016.4 7/ 7 3/ 8 5 SE WRIGHTSVLE NOT AVBL 225 S CAPE HAT 1446 73 72 250/ 14/ 16 1017.3 8/ 8 7/ 8 41 SE CHARLESTON 1500 58 72 290/ 19/ 23 1018.7 6/ 6 $$

USA.gov is the U.S. government's official web portal to all federal, state and local government web resources and services.